Simultaneous Nadir Overpasses (SNOs) Predictions

Prediction of SNOs between LANDSAT-8 and METOP-B Satellite Orbit:

Table of predicted SNOs for the next 14.0 days since TLE Epoch: 8/24/2019
Index Date (LANDSAT-8) Time (LANDSAT-8) Lat,Lon (LANDSAT-8) SZA (LANDSAT-8 ) Date (METOP-B) Time (METOP-B) Lat,Lon (METOP-B) SZA (METOP-B ) Distance(km) Time Diff (sec)
1 08/26/2019 20:42:38 81.17, -89.81 73.02 08/26/2019 20:42:26 81.17, -89.71 73.03 1.74 12
2 08/26/2019 21:32:04 -81.19, 78.16 106.92 08/26/2019 21:33:05 -81.19, 78.28 106.88 2.19 61
3 08/29/2019 16:16:53 81.17, -23.45 74.02 08/29/2019 16:16:47 81.17, -23.34 74.03 1.96 6
4 08/29/2019 17:06:19 -81.19, 144.55 105.92 08/29/2019 17:07:26 -81.19, 144.70 105.87 2.63 67
5 09/01/2019 11:01:44 -81.14,-125.13 105.04 09/01/2019 11:00:31 -81.14,-125.28 105.09 2.59 73
6 09/01/2019 11:51:09 81.16, 42.89 75.03 09/01/2019 11:51:09 81.17, 43.03 75.06 2.55 0
7 09/01/2019 12:40:35 -81.19,-149.08 104.90 09/01/2019 12:41:49 -81.18,-149.27 104.89 3.17 74
8 09/04/2019 06:35:59 -81.15, -58.42 103.95 09/04/2019 06:34:52 -81.15, -58.50 103.99 1.42 67
9 09/04/2019 07:25:24 81.18, 109.58 76.12 09/04/2019 07:25:30 81.18, 109.77 76.14 3.29 6




NCC Satellite Simultaneous Nadir Overpasses (SNOs) Prediction Service
